Time,TemperatureF,DewpointF,PressureIn,WindDirection,WindDirectionDegrees,WindSpeedMPH,WindSpeedGustMPH,Humidity,HourlyPrecipIn,Conditions,Clouds,dailyrainin,SoftwareType,DateUTC
2013-09-03 00:02:00,74.2,67.3,29.83,SW,225,0.0,4.0,79,0.00,,,0.00,Wunderground v.1.15,2013-09-03 07:02:00,
2013-09-03 00:12:00,74.1,67.2,29.83,SW,225,0.0,4.0,79,0.00,,,0.00,Wunderground v.1.15,2013-09-03 07:12:00,
2013-09-03 00:22:00,74.0,67.4,29.82,SW,225,0.0,0.0,80,0.00,,,0.00,Wunderground v.1.15,2013-09-03 07:22:00,
2013-09-03 00:32:00,73.8,67.2,29.83,SW,225,0.0,0.0,80,0.00,,,0.00,Wunderground v.1.15,2013-09-03 07:32:00,
2013-09-03 00:37:00,73.7,67.1,29.83,SW,225,0.0,0.0,80,0.00,,,0.00,Wunderground v.1.15,2013-09-03 07:37:00,
2013-09-03 00:47:00,73.7,67.1,29.83,SW,225,0.0,0.0,80,0.00,,,0.00,Wunderground v.1.15,2013-09-03 07:47:00,
2013-09-03 00:52:00,73.6,67.0,29.83,SW,225,0.0,0.0,80,0.00,,,0.00,Wunderground v.1.15,2013-09-03 07:52:00,
2013-09-03 01:02:00,73.4,67.2,29.83,SW,225,1.0,3.0,81,0.00,,,0.00,Wunderground v.1.15,2013-09-03 08:02:00,
2013-09-03 01:12:00,73.3,67.1,29.83,SW,225,1.0,3.0,81,0.00,,,0.00,Wunderground v.1.15,2013-09-03 08:12:00,
2013-09-03 01:22:00,73.3,67.1,29.83,SW,225,1.0,1.0,81,0.00,,,0.00,Wunderground v.1.15,2013-09-03 08:22:00,
2013-09-03 01:32:00,73.3,67.1,29.82,SW,225,0.0,0.0,81,0.00,,,0.00,Wunderground v.1.15,2013-09-03 08:32:00,
2013-09-03 01:37:00,73.4,67.2,29.82,SW,225,1.0,1.0,81,0.00,,,0.00,Wunderground v.1.15,2013-09-03 08:37:00,
2013-09-03 01:47:00,73.4,67.2,29.82,SW,225,0.0,1.0,81,0.00,,,0.00,Wunderground v.1.15,2013-09-03 08:47:00,
2013-09-03 01:57:00,73.2,66.7,29.82,SW,225,0.0,0.0,80,0.00,,,0.00,Wunderground v.1.15,2013-09-03 08:57:00,
2013-09-03 02:02:00,73.1,66.9,29.82,SW,225,0.0,3.0,81,0.00,,,0.00,Wunderground v.1.15,2013-09-03 09:02:00,
2013-09-03 02:12:00,73.0,66.8,29.82,SW,225,0.0,3.0,81,0.00,,,0.00,Wunderground v.1.15,2013-09-03 09:12:00,
2013-09-03 02:17:00,72.9,67.1,29.82,SW,225,0.0,3.0,82,0.00,,,0.00,Wunderground v.1.15,2013-09-03 09:17:00,
2013-09-03 02:27:00,72.9,67.1,29.82,SW,225,0.0,0.0,82,0.00,,,0.00,Wunderground v.1.15,2013-09-03 09:27:00,
2013-09-03 02:37:00,72.9,67.1,29.82,SW,225,0.0,0.0,82,0.00,,,0.00,Wunderground v.1.15,2013-09-03 09:37:00,
2013-09-03 02:47:00,72.9,67.1,29.82,SW,225,1.0,1.0,82,0.00,,,0.00,Wunderground v.1.15,2013-09-03 09:47:00,
2013-09-03 02:52:00,72.9,67.1,29.82,SW,225,0.0,0.0,82,0.00,,,0.00,Wunderground v.1.15,2013-09-03 09:52:00,
2013-09-03 03:02:00,72.9,67.1,29.82,SW,225,0.0,3.0,82,0.00,,,0.00,Wunderground v.1.15,2013-09-03 10:02:00,
2013-09-03 03:12:00,72.8,67.0,29.81,SW,225,0.0,3.0,82,0.00,,,0.00,Wunderground v.1.15,2013-09-03 10:12:00,
2013-09-03 03:22:00,72.7,66.9,29.81,SW,225,0.0,0.0,82,0.00,,,0.00,Wunderground v.1.15,2013-09-03 10:22:00,
2013-09-03 03:32:00,72.6,67.1,29.81,SW,225,0.0,1.0,83,0.00,,,0.00,Wunderground v.1.15,2013-09-03 10:32:00,
2013-09-03 03:42:00,72.6,66.8,29.81,SW,225,1.0,1.0,82,0.00,,,0.00,Wunderground v.1.15,2013-09-03 10:42:00,
2013-09-03 03:47:00,72.5,67.0,29.81,SW,225,0.0,1.0,83,0.00,,,0.00,Wunderground v.1.15,2013-09-03 10:47:00,
2013-09-03 03:57:00,72.5,67.0,29.81,SW,225,0.0,0.0,83,0.00,,,0.00,Wunderground v.1.15,2013-09-03 10:57:00,
2013-09-03 04:07:00,72.5,67.0,29.81,SW,225,0.0,2.0,83,0.00,,,0.00,Wunderground v.1.15,2013-09-03 11:07:00,
2013-09-03 04:17:00,72.4,66.9,29.81,SW,225,0.0,2.0,83,0.00,,,0.00,Wunderground v.1.15,2013-09-03 11:17:00,
2013-09-03 04:22:00,72.4,67.3,29.81,SW,225,0.0,1.0,84,0.00,,,0.00,Wunderground v.1.15,2013-09-03 11:22:00,
2013-09-03 04:32:00,72.4,67.3,29.81,SW,225,0.0,1.0,84,0.00,,,0.00,Wunderground v.1.15,2013-09-03 11:32:00,
2013-09-03 04:42:00,72.4,67.3,29.81,SW,225,0.0,0.0,84,0.00,,,0.00,Wunderground v.1.15,2013-09-03 11:42:00,
2013-09-03 04:52:00,72.3,67.2,29.81,SW,225,0.0,0.0,84,0.00,,,0.00,Wunderground v.1.15,2013-09-03 11:52:00,
2013-09-03 05:02:00,72.3,67.2,29.81,SW,225,0.0,2.0,84,0.00,,,0.00,Wunderground v.1.15,2013-09-03 12:02:00,
2013-09-03 05:12:00,72.2,67.1,29.81,SW,225,0.0,2.0,84,0.00,,,0.00,Wunderground v.1.15,2013-09-03 12:12:00,
2013-09-03 05:17:00,72.1,67.0,29.81,SW,225,0.0,2.0,84,0.00,,,0.00,Wunderground v.1.15,2013-09-03 12:17:00,
2013-09-03 05:27:00,72.1,67.0,29.81,SW,225,0.0,0.0,84,0.00,,,0.00,Wunderground v.1.15,2013-09-03 12:27:00,
2013-09-03 05:37:00,72.0,66.9,29.82,SW,225,0.0,0.0,84,0.00,,,0.00,Wunderground v.1.15,2013-09-03 12:37:00,
2013-09-03 05:42:00,72.0,67.2,29.81,SW,225,0.0,0.0,85,0.00,,,0.00,Wunderground v.1.15,2013-09-03 12:42:00,
2013-09-03 05:52:00,71.9,67.1,29.82,SW,225,0.0,1.0,85,0.00,,,0.00,Wunderground v.1.15,2013-09-03 12:52:00,
2013-09-03 06:02:00,72.0,66.9,29.82,SW,225,1.0,1.0,84,0.00,,,0.00,Wunderground v.1.15,2013-09-03 13:02:00,
2013-09-03 06:12:00,72.0,66.9,29.82,SW,225,0.0,2.0,84,0.00,,,0.00,Wunderground v.1.15,2013-09-03 13:12:00,
2013-09-03 06:22:00,71.8,67.0,29.82,SW,225,0.0,0.0,85,0.00,,,0.00,Wunderground v.1.15,2013-09-03 13:22:00,
2013-09-03 06:32:00,71.7,66.9,29.83,SW,225,0.0,0.0,85,0.00,,,0.00,Wunderground v.1.15,2013-09-03 13:32:00,
2013-09-03 06:42:00,71.5,67.1,29.83,SW,225,0.0,0.0,86,0.00,,,0.00,Wunderground v.1.15,2013-09-03 13:42:00,
2013-09-03 06:52:00,71.4,67.0,29.83,SW,225,0.0,0.0,86,0.00,,,0.00,Wunderground v.1.15,2013-09-03 13:52:00,
2013-09-03 07:02:00,71.3,66.9,29.83,SW,225,0.0,2.0,86,0.00,,,0.00,Wunderground v.1.15,2013-09-03 14:02:00,
2013-09-03 07:12:00,71.4,67.0,29.83,SW,225,0.0,2.0,86,0.00,,,0.00,Wunderground v.1.15,2013-09-03 14:12:00,
2013-09-03 07:17:00,71.6,67.2,29.83,SW,225,0.0,2.0,86,0.00,,,0.00,Wunderground v.1.15,2013-09-03 14:17:00,
2013-09-03 07:27:00,71.9,67.1,29.84,SW,225,0.0,0.0,85,0.00,,,0.00,Wunderground v.1.15,2013-09-03 14:27:00,
2013-09-03 07:37:00,72.4,67.6,29.84,SW,225,0.0,1.0,85,0.00,,,0.00,Wunderground v.1.15,2013-09-03 14:37:00,
2013-09-03 07:47:00,73.1,67.6,29.85,SW,225,0.0,0.0,83,0.00,,,0.00,Wunderground v.1.15,2013-09-03 14:47:00,
2013-09-03 07:52:00,73.5,68.0,29.85,SW,225,0.0,1.0,83,0.00,,,0.00,Wunderground v.1.15,2013-09-03 14:52:00,
2013-09-03 08:02:00,74.6,68.4,29.85,SW,225,0.0,1.0,81,0.00,,,0.00,Wunderground v.1.15,2013-09-03 15:02:00,
2013-09-03 08:12:00,75.9,68.9,29.85,SW,225,0.0,1.0,79,0.00,,,0.00,Wunderground v.1.15,2013-09-03 15:12:00,
2013-09-03 08:22:00,76.4,68.7,29.85,SW,225,0.0,0.0,77,0.00,,,0.00,Wunderground v.1.15,2013-09-03 15:22:00,
2013-09-03 08:32:00,76.6,68.5,29.85,SW,225,0.0,1.0,76,0.00,,,0.00,Wunderground v.1.15,2013-09-03 15:32:00,
2013-09-03 08:42:00,77.1,68.9,29.86,SW,225,0.0,0.0,76,0.00,,,0.00,Wunderground v.1.15,2013-09-03 15:42:00,
2013-09-03 08:52:00,78.3,68.9,29.86,SW,225,0.0,0.0,73,0.00,,,0.00,Wunderground v.1.15,2013-09-03 15:52:00,
2013-09-03 09:02:00,78.5,68.7,29.86,SW,225,1.0,1.0,72,0.00,,,0.00,Wunderground v.1.15,2013-09-03 16:02:00,
2013-09-03 09:07:00,78.8,69.0,29.86,SW,225,1.0,2.0,72,0.00,,,0.00,Wunderground v.1.15,2013-09-03 16:07:00,
2013-09-03 09:17:00,80.2,69.1,29.86,NE,54,1.0,2.0,69,0.00,,,0.00,Wunderground v.1.15,2013-09-03 16:17:00,
2013-09-03 09:22:00,80.6,69.1,29.86,South,171,1.0,1.0,68,0.00,,,0.00,Wunderground v.1.15,2013-09-03 16:22:00,
2013-09-03 09:32:00,80.7,69.2,29.86,SSW,211,1.0,1.0,68,0.00,,,0.00,Wunderground v.1.15,2013-09-03 16:32:00,
2013-09-03 09:37:00,81.4,69.4,29.86,SSW,211,1.0,2.0,67,0.00,,,0.00,Wunderground v.1.15,2013-09-03 16:37:00,
2013-09-03 09:42:00,82.0,69.5,29.86,SW,219,1.0,1.0,66,0.00,,,0.00,Wunderground v.1.15,2013-09-03 16:42:00,
2013-09-03 09:47:00,82.3,69.4,29.86,SSW,198,1.0,1.0,65,0.00,,,0.00,Wunderground v.1.15,2013-09-03 16:47:00,
2013-09-03 09:57:00,82.5,68.6,29.86,SSW,211,2.0,2.0,63,0.00,,,0.00,Wunderground v.1.15,2013-09-03 16:57:00,
2013-09-03 10:02:00,82.9,69.0,29.86,SSW,211,1.0,2.0,63,0.00,,,0.00,Wunderground v.1.15,2013-09-03 17:02:00,
2013-09-03 10:12:00,84.5,69.1,29.86,SSW,193,1.0,1.0,60,0.00,,,0.00,Wunderground v.1.15,2013-09-03 17:12:00,
2013-09-03 10:22:00,85.2,69.7,29.87,SSE,155,1.0,4.0,60,0.00,,,0.00,Wunderground v.1.15,2013-09-03 17:22:00,
2013-09-03 10:32:00,85.7,69.2,29.87,SSE,164,2.0,2.0,58,0.00,,,0.00,Wunderground v.1.15,2013-09-03 17:32:00,
2013-09-03 10:37:00,86.2,69.2,29.87,SE,146,2.0,2.0,57,0.00,,,0.00,Wunderground v.1.15,2013-09-03 17:37:00,
2013-09-03 10:47:00,87.7,69.0,29.87,ESE,117,2.0,2.0,54,0.00,,,0.00,Wunderground v.1.15,2013-09-03 17:47:00,
2013-09-03 10:52:00,88.4,69.6,29.87,East,94,2.0,2.0,54,0.00,,,0.00,Wunderground v.1.15,2013-09-03 17:52:00,
2013-09-03 11:02:00,89.5,69.0,29.87,SW,223,1.0,4.0,51,0.00,,,0.00,Wunderground v.1.15,2013-09-03 18:02:00,
2013-09-03 11:07:00,89.2,69.3,29.87,WSW,252,2.0,4.0,52,0.00,,,0.00,Wunderground v.1.15,2013-09-03 18:07:00,
2013-09-03 11:17:00,89.2,68.7,29.86,WSW,240,3.0,3.0,51,0.00,,,0.00,Wunderground v.1.15,2013-09-03 18:17:00,
2013-09-03 11:27:00,89.1,68.6,29.87,South,189,3.0,4.0,51,0.00,,,0.00,Wunderground v.1.15,2013-09-03 18:27:00,
2013-09-03 11:37:00,89.7,68.0,29.86,SW,222,3.0,3.0,49,0.00,,,0.00,Wunderground v.1.15,2013-09-03 18:37:00,
2013-09-03 11:42:00,89.6,68.5,29.86,SSW,207,4.0,6.0,50,0.00,,,0.00,Wunderground v.1.15,2013-09-03 18:42:00,
2013-09-03 11:52:00,89.9,68.8,29.85,WSW,252,3.0,3.0,50,0.00,,,0.00,Wunderground v.1.15,2013-09-03 18:52:00,
2013-09-03 11:57:00,90.5,68.1,29.85,WNW,289,3.0,3.0,48,0.00,,,0.00,Wunderground v.1.15,2013-09-03 18:57:00,
2013-09-03 12:02:00,90.9,68.5,29.85,East,97,2.0,6.0,48,0.00,,,0.00,Wunderground v.1.15,2013-09-03 19:02:00,
2013-09-03 12:12:00,92.3,67.2,29.85,West,274,3.0,3.0,44,0.00,,,0.00,Wunderground v.1.15,2013-09-03 19:12:00,
2013-09-03 12:22:00,92.6,66.8,29.84,NW,306,3.0,3.0,43,0.00,,,0.00,Wunderground v.1.15,2013-09-03 19:22:00,
2013-09-03 12:32:00,93.5,66.3,29.84,WNW,297,3.0,3.0,41,0.00,,,0.00,Wunderground v.1.15,2013-09-03 19:32:00,
2013-09-03 12:42:00,93.8,67.9,29.83,SSW,205,3.0,7.0,43,0.00,,,0.00,Wunderground v.1.15,2013-09-03 19:42:00,
2013-09-03 12:47:00,94.0,67.4,29.83,SSW,208,3.0,7.0,42,0.00,,,0.00,Wunderground v.1.15,2013-09-03 19:47:00,
2013-09-03 12:57:00,95.4,66.5,29.83,NW,308,3.0,4.0,39,0.00,,,0.00,Wunderground v.1.15,2013-09-03 19:57:00,
2013-09-03 13:07:00,95.0,68.3,29.83,West,265,5.0,10.0,42,0.00,,,0.00,Wunderground v.1.15,2013-09-03 20:07:00,
2013-09-03 13:12:00,95.5,68.8,29.82,SW,217,4.0,10.0,42,0.00,,,0.00,Wunderground v.1.15,2013-09-03 20:12:00,
2013-09-03 13:22:00,95.4,70.0,29.82,South,185,5.0,5.0,44,0.00,,,0.00,Wunderground v.1.15,2013-09-03 20:22:00,
2013-09-03 13:27:00,95.8,69.7,29.82,South,169,5.0,6.0,43,0.00,,,0.00,Wunderground v.1.15,2013-09-03 20:27:00,
2013-09-03 13:37:00,96.2,69.4,29.82,South,173,5.0,7.0,42,0.00,,,0.00,Wunderground v.1.15,2013-09-03 20:37:00,
2013-09-03 13:47:00,95.5,68.1,29.82,SSW,193,6.0,6.0,41,0.00,,,0.00,Wunderground v.1.15,2013-09-03 20:47:00,
2013-09-03 13:52:00,95.9,69.1,29.81,WSW,250,6.0,11.0,42,0.00,,,0.00,Wunderground v.1.15,2013-09-03 20:52:00,
2013-09-03 14:02:00,95.9,69.8,29.82,South,184,7.0,7.0,43,0.00,,,0.00,Wunderground v.1.15,2013-09-03 21:02:00,
2013-09-03 14:12:00,96.4,69.6,29.81,WSW,248,5.0,5.0,42,0.00,,,0.00,Wunderground v.1.15,2013-09-03 21:12:00,
2013-09-03 14:22:00,96.5,68.9,29.81,SW,224,6.0,6.0,41,0.00,,,0.00,Wunderground v.1.15,2013-09-03 21:22:00,
2013-09-03 14:32:00,96.9,68.6,29.80,SW,225,6.0,6.0,40,0.00,,,0.00,Wunderground v.1.15,2013-09-03 21:32:00,
2013-09-03 14:42:00,97.2,65.8,29.80,West,269,6.0,6.0,36,0.00,,,0.00,Wunderground v.1.15,2013-09-03 21:42:00,
2013-09-03 14:52:00,96.9,64.7,29.79,SSW,203,6.0,7.0,35,0.00,,,0.00,Wunderground v.1.15,2013-09-03 21:52:00,
2013-09-03 15:02:00,96.7,65.4,29.79,SSW,211,6.0,6.0,36,0.00,,,0.00,Wunderground v.1.15,2013-09-03 22:02:00,
2013-09-03 15:12:00,96.0,63.9,29.78,WSW,238,6.0,13.0,35,0.00,,,0.00,Wunderground v.1.15,2013-09-03 22:12:00,
2013-09-03 15:22:00,96.4,65.1,29.78,SW,217,5.0,6.0,36,0.00,,,0.00,Wunderground v.1.15,2013-09-03 22:22:00,
2013-09-03 15:32:00,96.4,65.9,29.78,WSW,258,5.0,7.0,37,0.00,,,0.00,Wunderground v.1.15,2013-09-03 22:32:00,
2013-09-03 15:42:00,95.9,66.2,29.78,West,261,5.0,5.0,38,0.00,,,0.00,Wunderground v.1.15,2013-09-03 22:42:00,
2013-09-03 15:52:00,94.9,67.5,29.78,WNW,288,5.0,5.0,41,0.00,,,0.00,Wunderground v.1.15,2013-09-03 22:52:00,
2013-09-03 16:02:00,94.8,68.1,29.78,WNW,283,5.0,5.0,42,0.00,,,0.00,Wunderground v.1.15,2013-09-03 23:02:00,
2013-09-03 16:12:00,93.1,67.3,29.78,WSW,242,6.0,14.0,43,0.00,,,0.00,Wunderground v.1.15,2013-09-03 23:12:00,
2013-09-03 16:22:00,92.2,67.8,29.78,SW,226,6.0,6.0,45,0.00,,,0.00,Wunderground v.1.15,2013-09-03 23:22:00,
2013-09-03 16:32:00,92.0,66.3,29.78,SSW,210,5.0,6.0,43,0.00,,,0.00,Wunderground v.1.15,2013-09-03 23:32:00,
2013-09-03 16:42:00,91.5,66.5,29.78,WNW,298,5.0,5.0,44,0.00,,,0.00,Wunderground v.1.15,2013-09-03 23:42:00,
2013-09-03 16:47:00,91.3,65.7,29.78,WNW,300,5.0,5.0,43,0.00,,,0.00,Wunderground v.1.15,2013-09-03 23:47:00,
2013-09-03 16:52:00,91.4,66.4,29.78,NNW,331,4.0,4.0,44,0.00,,,0.00,Wunderground v.1.15,2013-09-03 23:52:00,
2013-09-03 17:02:00,91.0,66.1,29.78,West,278,5.0,15.0,44,0.00,,,0.00,Wunderground v.1.15,2013-09-04 00:02:00,
2013-09-03 17:12:00,90.6,66.3,29.78,West,272,4.0,15.0,45,0.00,,,0.00,Wunderground v.1.15,2013-09-04 00:12:00,
2013-09-03 17:22:00,91.0,66.1,29.78,NW,308,3.0,7.0,44,0.00,,,0.00,Wunderground v.1.15,2013-09-04 00:22:00,
2013-09-03 17:32:00,90.2,66.6,29.78,WNW,295,4.0,4.0,46,0.00,,,0.00,Wunderground v.1.15,2013-09-04 00:32:00,
2013-09-03 17:42:00,89.8,66.3,29.78,West,269,3.0,4.0,46,0.00,,,0.00,Wunderground v.1.15,2013-09-04 00:42:00,
2013-09-03 17:47:00,90.0,66.4,29.78,SW,234,3.0,4.0,46,0.00,,,0.00,Wunderground v.1.15,2013-09-04 00:47:00,
2013-09-03 17:57:00,89.0,66.2,29.78,West,273,5.0,6.0,47,0.00,,,0.00,Wunderground v.1.15,2013-09-04 00:57:00,
2013-09-03 18:07:00,89.0,66.2,29.78,NW,306,4.0,15.0,47,0.00,,,0.00,Wunderground v.1.15,2013-09-04 01:07:00,
2013-09-03 18:12:00,88.8,66.0,29.78,NW,309,3.0,15.0,47,0.00,,,0.00,Wunderground v.1.15,2013-09-04 01:12:00,
2013-09-03 18:17:00,88.4,66.2,29.77,NW,315,4.0,15.0,48,0.00,,,0.00,Wunderground v.1.15,2013-09-04 01:17:00,
2013-09-03 18:27:00,87.9,66.9,29.77,West,265,3.0,4.0,50,0.00,,,0.00,Wunderground v.1.15,2013-09-04 01:27:00,
2013-09-03 18:32:00,87.7,66.2,29.77,NNW,329,3.0,3.0,49,0.00,,,0.00,Wunderground v.1.15,2013-09-04 01:32:00,
2013-09-03 18:42:00,87.5,66.6,29.78,NW,326,2.0,3.0,50,0.00,,,0.00,Wunderground v.1.15,2013-09-04 01:42:00,
2013-09-03 18:52:00,86.9,67.2,29.78,WNW,298,2.0,2.0,52,0.00,,,0.00,Wunderground v.1.15,2013-09-04 01:52:00,
2013-09-03 19:02:00,86.2,67.6,29.77,WSW,258,2.0,12.0,54,0.00,,,0.00,Wunderground v.1.15,2013-09-04 02:02:00,
2013-09-03 19:12:00,85.4,67.4,29.78,West,267,2.0,12.0,55,0.00,,,0.00,Wunderground v.1.15,2013-09-04 02:12:00,
2013-09-03 19:22:00,84.9,66.9,29.78,SW,229,1.0,3.0,55,0.00,,,0.00,Wunderground v.1.15,2013-09-04 02:22:00,
2013-09-03 19:32:00,84.3,66.9,29.78,SW,236,2.0,4.0,56,0.00,,,0.00,Wunderground v.1.15,2013-09-04 02:32:00,
2013-09-03 19:42:00,83.7,66.8,29.79,SW,236,2.0,2.0,57,0.00,,,0.00,Wunderground v.1.15,2013-09-04 02:42:00,
2013-09-03 19:52:00,83.2,66.4,29.79,WSW,238,2.0,2.0,57,0.00,,,0.00,Wunderground v.1.15,2013-09-04 02:52:00,
2013-09-03 20:02:00,82.6,66.3,29.80,WSW,237,2.0,2.0,58,0.00,,,0.00,Wunderground v.1.15,2013-09-04 03:02:00,
2013-09-03 20:12:00,82.1,66.4,29.80,WSW,237,1.0,9.0,59,0.00,,,0.00,Wunderground v.1.15,2013-09-04 03:12:00,
2013-09-03 20:22:00,81.7,66.0,29.80,SW,236,1.0,2.0,59,0.00,,,0.00,Wunderground v.1.15,2013-09-04 03:22:00,
2013-09-03 20:32:00,81.3,66.1,29.80,SW,236,1.0,2.0,60,0.00,,,0.00,Wunderground v.1.15,2013-09-04 03:32:00,
2013-09-03 20:42:00,81.0,65.8,29.80,SW,236,1.0,1.0,60,0.00,,,0.00,Wunderground v.1.15,2013-09-04 03:42:00,
2013-09-03 20:52:00,80.8,66.1,29.81,SW,236,0.0,0.0,61,0.00,,,0.00,Wunderground v.1.15,2013-09-04 03:52:00,
2013-09-03 21:02:00,80.6,65.9,29.81,SW,236,0.0,6.0,61,0.00,,,0.00,Wunderground v.1.15,2013-09-04 04:02:00,
2013-09-03 21:12:00,80.4,65.7,29.81,SW,236,0.0,6.0,61,0.00,,,0.00,Wunderground v.1.15,2013-09-04 04:12:00,
2013-09-03 21:17:00,80.3,66.1,29.81,SW,236,0.0,6.0,62,0.00,,,0.00,Wunderground v.1.15,2013-09-04 04:17:00,
2013-09-03 21:22:00,80.2,66.0,29.81,SW,236,0.0,0.0,62,0.00,,,0.00,Wunderground v.1.15,2013-09-04 04:22:00,
2013-09-03 21:32:00,80.2,66.5,29.82,SW,236,0.0,1.0,63,0.00,,,0.00,Wunderground v.1.15,2013-09-04 04:32:00,
2013-09-03 21:37:00,80.2,66.5,29.82,SW,236,0.0,1.0,63,0.00,,,0.00,Wunderground v.1.15,2013-09-04 04:37:00,
2013-09-03 21:42:00,80.1,66.4,29.82,SW,236,0.0,0.0,63,0.00,,,0.00,Wunderground v.1.15,2013-09-04 04:42:00,
2013-09-03 21:52:00,79.8,66.5,29.82,SW,236,0.0,0.0,64,0.00,,,0.00,Wunderground v.1.15,2013-09-04 04:52:00,
2013-09-03 22:02:00,79.8,66.5,29.82,SW,236,1.0,1.0,64,0.00,,,0.00,Wunderground v.1.15,2013-09-04 05:02:00,
2013-09-03 22:12:00,79.8,66.1,29.82,SW,236,1.0,1.0,63,0.00,,,0.00,Wunderground v.1.15,2013-09-04 05:12:00,
2013-09-03 22:22:00,79.8,66.1,29.82,SW,236,1.0,2.0,63,0.00,,,0.00,Wunderground v.1.15,2013-09-04 05:22:00,
2013-09-03 22:32:00,79.5,65.8,29.82,SW,236,1.0,1.0,63,0.00,,,0.00,Wunderground v.1.15,2013-09-04 05:32:00,
2013-09-03 22:42:00,79.2,66.0,29.83,SW,236,1.0,1.0,64,0.00,,,0.00,Wunderground v.1.15,2013-09-04 05:42:00,
2013-09-03 22:52:00,78.8,66.0,29.83,SW,236,1.0,1.0,65,0.00,,,0.00,Wunderground v.1.15,2013-09-04 05:52:00,
2013-09-03 23:02:00,78.4,65.7,29.83,SW,236,1.0,2.0,65,0.00,,,0.00,Wunderground v.1.15,2013-09-04 06:02:00,
2013-09-03 23:12:00,78.2,65.5,29.83,SW,236,1.0,2.0,65,0.00,,,0.00,Wunderground v.1.15,2013-09-04 06:12:00,
2013-09-03 23:22:00,78.0,65.7,29.84,SW,236,0.0,0.0,66,0.00,,,0.00,Wunderground v.1.15,2013-09-04 06:22:00,
2013-09-03 23:32:00,77.7,65.4,29.84,SW,236,0.0,0.0,66,0.00,,,0.00,Wunderground v.1.15,2013-09-04 06:32:00,
2013-09-03 23:37:00,77.5,65.7,29.84,SW,236,0.0,0.0,67,0.00,,,0.00,Wunderground v.1.15,2013-09-04 06:37:00,
2013-09-03 23:47:00,77.3,65.5,29.84,SW,236,0.0,0.0,67,0.00,,,0.00,Wunderground v.1.15,2013-09-04 06:47:00,
2013-09-03 23:52:00,77.2,65.4,29.84,SW,236,0.0,0.0,67,0.00,,,0.00,Wunderground v.1.15,2013-09-04 06:52:00,